RH
91 87 77 78 62 50 47 39 36 37 35 37 38 36 40 36 39 57 64 60 51 66 64 60 52 42 34 33 37 32 41 51 66 62 59 58 62 68 70 76 85 88 97
56 49 42 30 25 17 14 13 13 12 13 12 12 15 18 19 25 30 33 58 79 57 49 51 57 52 41 36 32 42 38 45 61 70 70 63 54 49 60 60 70 71 85
20 17 16 15 13 12 11 11 10 10 11 12 13 12 12 16 17 23 32 35 46 82 91 65 64 58 50 40 36 33 50 49 47 61 66 69 69 57 55 57 50 64 69
16 15 14 13 12 12 12 10 11 12 13 13 12 12 13 16 17 18 34 83 75 87 100 100 83 67 56 50 48 35 48 57 54 52 65 79 93 98 80 79 72 54 57
17 16 15 15 14 14 14 14 14 16 14 12 12 13 12 17 32 30 23 29 65 72 95 100 100 84 76 70 51 47 44 53 79 60 58 80 76 73 79 89 91 96 72
19 21 19 18 18 19 18 23 23 23 20 15 15 15 18 24 56 61 49 26 31 73 100 100 89 98 82 74 83 68 53 58 80 99 80 66 67 78 82 88 91 94 100
21 28 25 27 28 28 28 32 32 29 24 21 21 20 20 23 51 81 72 65 38 44 88 100 100 100 91 93 100 100 94 77 75 100 100 100 82 69 83 84 85 100 100
26 28 27 28 28 28 28 31 31 34 30 33 24 27 28 27 28 48 65 79 86 90 84 100 100 100 100 100 94 91 100 100 98 88 97 100 100 96 66 67 85 100 100
28 21 21 19 23 30 32 32 32 28 29 34 36 30 31 35 37 35 38 47 61 66 81 93 96 90 93 88 87 93 97 100 100 100 100 100 100 100 100 93 72 83 92
20 23 19 21 18 20 24 30 33 29 27 26 28 30 22 29 28 29 32 38 36 35 35 37 44 78 94 100 100 100 100 100 100 100 100 100 100 100 100 100 100 100 100
24 33 22 20 20 20 17 23 23 26 28 22 22 20 21 23 25 24 25 29 26 29 31 31 35 35 39 43 60 82 97 95 96 100 100 100 97 83 95 100 100 100 100
55 34 31 23 17 16 18 20 24 32 28 22 21 21 23 19 21 21 21 24 23 24 25 27 28 26 25 32 35 35 38 46 50 59 74 93 100 100 84 75 94 100 92
31 36 28 18 15 16 17 19 19 22 23 24 55 34 30 22 21 21 24 23 24 21 18 21 22 22 20 22 30 29 29 30 32 31 33 37 50 70 89 80 79 76 84
40 45 26 13 16 22 26 26 23 21 26 27 31 24 24 23 29 22 24 26 24 25 21 20 21 19 21 21 23 27 27 27 27 29 35 38 34 29 36 56 69 67 70
34 26 19 16 18 26 29 32 36 36 36 25 29 27 27 30 34 34 32 34 30 28 24 26 28 22 19 19 21 23 25 25 25 25 28 28 34 34 28 29 31 52 63
12 13 16 18 20 31 35 42 42 28 28 25 26 32 32 28 40 40 49 38 35 34 29 30 34 28 26 25 20 20 21 27 30 30 26 26 29 35 37 36 26 22 28
11 14 16 17 22 25 31 31 29 26 22 23 23 22 23 31 38 87 67 47 51 45 43 40 40 39 41 51 44 34 23 29 31 29 27 25 24 25 31 32 33 25 21
14 15 15 20 23 22 28 22 27 21 25 23 26 31 38 57 53 90 91 68 58 54 51 53 52 52 46 51 58 47 31 26 24 25 24 28 24 23 23 26 33 32 28
14 17 21 23 22 25 24 23 20 20 24 32 42 39 39 46 57 63 69 59 49 45 51 51 55 58 65 59 50 37 34 29 28 30 32 28 29 27 27 25 27 32 31
16 21 22 24 28 30 28 33 38 42 44 38 43 53 52 58 60 59 54 44 40 45 49 51 54 67 66 56 56 47 42 39 32 31 33 32 36 32 31 32 28 27 34
27 28 26 29 41 37 38 43 46 56 61 72 66 47 44 38 33 35 37 68 60 67 60 71 78 70 65 61 52 44 41 40 39 36 37 38 34 30 32 29 26 30 32
42 49 54 52 35 30 28 36 34 45 45 47 41 47 47 49 52 55 55 65 79 71 78 80 88 85 65 61 52 47 51 49 45 40 43 41 36 36 34 31 28 30 32
18 21 29 28 31 31 34 33 35 36 36 42 51 54 62 78 83 90 100 100 89 91 87 93 83 73 64 57 55 47 42 45 46 45 46 49 49 45 39 36 32 36 38
22 27 33 32 28 33 38 45 52 56 60 74 87 91 100 97 98 100 100 100 100 100 97 88 79 74 66 57 58 61 66 58 53 59 60 53 54 45 42 41 38 47 47
30 34 35 31 37 42 44 48 52 66 85 86 96 99 92 87 100 100 100 100 100 100 96 92 80 81 75 71 69 70 70 53 53 61 65 56 62 51 47 46 49 59 59
40 41 44 42 45 60 68 64 59 62 64 82 100 100 96 94 96 100 96 94 100 100 94 87 89 77 78 72 65 58 50 56 62 70 66 60 59 55 54 55 61 66 70
Wind_Speed
13 19 26 31 35 37 40 41 39 39 43 46 51 56 61 62 58 55 54 57 56 54 53 53 51 49 46 44 43 42 40 41 41 40 39 37 34 33 32 31 29 31 32
8 13 22 25 27 24 19 15 16 18 20 20 28 36 42 45 53 60 58 52 49 56 59 56 58 55 53 51 48 48 45 42 42 41 42 40 38 36 35 34 31 28 32
9 14 18 17 15 14 13 14 15 14 11 11 10 15 25 34 38 44 50 54 49 46 55 57 55 54 54 53 53 51 50 46 44 44 42 42 41 38 37 36 34 31 32
5 8 14 18 22 23 22 19 21 18 17 17 17 14 13 17 29 38 41 44 44 42 40 51 58 58 58 56 54 55 52 49 48 45 44 43 40 38 36 33 33 35 34
9 10 12 17 23 21 20 21 20 16 17 18 16 14 13 11 8 17 28 33 36 39 38 37 45 53 54 60 58 56 57 53 50 49 47 46 48 46 43 40 32 33 32
15 19 19 15 15 14 16 19 16 14 11 14 14 13 12 11 10 6 8 19 27 30 28 32 37 43 52 54 56 56 59 55 52 50 51 49 48 48 47 45 45 42 40
19 21 17 15 14 14 18 24 20 16 10 9 15 16 10 11 10 11 7 5 13 20 22 26 26 29 35 44 50 51 56 57 54 52 51 52 51 50 49 49 43 41 39
19 24 16 17 18 13 13 21 23 21 20 19 13 17 18 15 11 13 7 5 5 8 16 20 23 28 29 29 35 49 50 51 56 55 53 52 51 53 53 52 50 45 43
16 17 16 21 20 18 15 10 16 25 17 25 15 19 16 22 24 21 24 13 7 5 8 14 18 21 23 29 33 33 38 51 51 53 56 55 54 54 54 55 56 55 49
11 10 12 16 18 13 12 17 12 20 22 15 22 15 20 15 16 18 15 20 20 19 16 14 10 13 17 21 26 30 33 37 46 57 58 60 61 60 59 59 59 59 58
6 10 8 14 14 19 17 18 15 4 15 16 9 11 19 19 9 10 16 8 16 13 11 14 14 7 9 10 18 23 30 38 42 44 53 62 64 67 66 63 63 63 63
7 8 12 14 15 13 16 20 20 22 12 10 11 22 16 22 21 15 13 17 15 9 7 8 14 14 13 18 12 15 22 27 36 44 50 52 56 66 68 71 69 67 67
7 8 10 11 12 14 18 20 21 21 18 16 22 19 22 26 25 23 24 25 23 29 25 18 20 18 22 17 17 26 22 22 24 32 40 49 58 62 62 69 74 74 73
13 11 12 9 12 17 20 20 21 21 22 23 23 24 23 24 26 26 29 30 32 31 30 27 28 27 29 27 22 21 25 32 27 23 31 36 45 54 61 66 71 72 76
11 8 7 11 17 20 20 21 22 23 24 23 26 26 27 28 29 31 32 36 34 32 34 36 35 37 34 37 30 31 33 32 32 35 32 34 37 48 58 59 61 71 77
8 10 8 14 18 20 21 23 26 25 25 26 28 28 31 31 29 30 32 37 36 36 39 40 41 42 45 46 41 43 46 40 37 41 38 42 38 38 40 52 66 67 71
12 13 14 17 21 23 22 23 24 26 28 30 30 32 32 33 32 33 35 38 40 41 46 44 47 50 52 51 52 51 52 53 54 51 50 47 49 47 48 54 58 69 69
20 20 19 19 24 25 25 28 29 29 30 30 30 32 34 35 34 37 39 42 44 48 50 51 52 53 54 55 58 57 59 61 60 60 56 59 57 56 55 52 59 64 66
25 28 29 27 27 28 30 31 33 35 35 35 36 35 35 36 37 39 44 46 47 51 53 52 53 55 57 58 60 62 65 66 67 67 68 66 65 65 63 61 58 61 70
29 29 29 30 31 34 36 38 42 43 41 42 39 41 41 42 43 44 48 49 50 51 55 57 58 59 60 62 63 66 69 71 73 74 76 76 76 75 73 67 64 63 66
35 36 38 39 40 41 42 43 46 48 50 49 47 46 45 45 46 49 52 54 56 57 61 64 65 67 68 68 71 72 73 74 77 80 82 83 82 84 82 76 70 66 66
33 35 37 36 39 40 41 42 42 44 45 49 49 51 52 53 53 54 55 58 60 64 66 68 70 71 72 74 76 77 78 81 84 86 87 87 90 89 87 82 76 69 68
37 38 38 40 40 41 43 45 46 49 52 52 54 56 59 60 59 62 62 64 68 70 73 74 74 74 78 79 80 81 85 87 90 92 92 91 93 92 89 86 78 70 67
39 41 42 43 43 43 46 49 51 54 56 58 60 62 64 66 66 67 68 70 74 75 77 77 77 79 82 82 84 87 90 93 96 96 97 97 98 96 91 85 77 67 64
44 46 46 46 48 50 51 55 57 58 61 63 64 64 65 68 69 70 73 74 76 77 81 82 84 87 88 90 90 93 96 100 101 101 103 101 96 92 87 80 71 63 62
51 52 54 53 55 57 60 61 64 65 66 67 68 68 70 70 71 74 76 79 81 83 86 89 91 93 93 95 97 100 101 103 107 105 105 99 95 89 81 73 63 60 61
Wind_Direction
255 266 274 275 277 280 280 280 280 275 271 269 264 262 263 265 261 258 259 259 258 257 257 255 254 254 255 254 255 255 254 255 254 256 254 252 254 257 257 255 252 256 260
265 273 287 291 293 301 306 316 302 295 284 282 263 257 259 264 262 258 257 258 257 256 253 254 256 254 255 255 255 255 255 255 255 254 256 255 255 256 256 256 253 251 258
284 306 306 304 314 342 346 346 343 343 345 333 321 303 264 257 257 257 253 254 255 260 254 250 249 253 252 255 253 256 253 253 255 256 255 255 258 256 253 254 252 252 253
310 311 330 330 334 343 345 340 353 359 355 347 340 332 326 273 257 255 254 248 248 254 257 252 250 252 251 250 249 250 251 251 251 253 254 252 250 251 252 249 251 252 253
15 356 328 331 339 341 338 341 345 351 342 345 354 353 349 347 299 257 249 247 248 248 256 259 252 249 248 249 246 247 248 249 249 249 250 250 250 250 249 248 245 250 251
54 36 6 18 5 4 354 1 0 355 347 347 344 342 355 7 9 323 270 241 243 244 255 261 261 256 254 252 250 249 248 247 249 250 250 252 251 251 249 249 253 255 262
65 45 30 57 67 62 68 65 66 75 54 34 49 34 21 28 26 14 355 293 240 247 249 255 261 262 261 257 254 256 252 250 247 248 251 251 250 251 249 246 249 252 257
61 62 57 70 69 66 57 75 63 57 72 65 56 57 55 45 49 48 10 336 289 271 257 258 264 262 262 263 261 255 253 255 250 249 250 251 250 250 248 249 244 246 252
73 66 66 48 46 59 59 63 60 61 72 64 79 82 66 61 55 66 50 51 26 334 291 280 277 278 280 274 267 265 260 253 253 253 249 249 249 250 250 248 250 246 244
88 66 13 9 6 28 43 49 56 51 60 91 60 66 42 77 65 59 54 50 52 45 43 13 321 286 285 282 275 269 266 262 256 252 251 251 250 251 251 248 247 248 248
71 18 349 343 349 351 10 38 44 11 49 56 63 45 36 49 45 48 50 58 29 21 53 45 22 334 329 307 290 273 269 263 259 259 257 253 252 251 253 252 251 248 248
310 342 352 334 339 352 2 14 20 26 34 12 41 28 32 33 28 32 28 11 2 354 336 349 341 346 329 272 284 295 275 278 270 263 261 258 257 254 253 252 251 251 249
290 314 333 326 331 355 6 6 12 9 9 10 12 10 18 15 10 12 10 10 356 353 350 338 322 297 329 330 271 271 286 276 283 270 267 264 259 255 257 256 253 252 250
266 271 309 319 329 333 350 351 351 355 352 356 350 360 4 4 354 358 357 358 351 347 342 339 338 327 330 305 318 277 281 271 279 291 272 268 268 263 257 255 255 254 250
244 245 271 299 320 325 334 338 338 339 335 331 338 344 349 351 349 345 346 344 346 343 343 339 338 337 322 320 312 323 322 309 308 285 283 280 268 266 265 262 258 253 251
256 293 302 301 313 318 319 325 333 335 327 323 327 335 339 342 341 334 336 338 339 337 330 331 332 333 330 328 329 322 316 323 308 315 306 293 289 272 264 261 260 258 254
299 294 301 304 306 307 315 320 327 329 330 328 325 331 337 334 330 326 327 328 331 328 330 327 327 327 325 324 322 323 317 317 317 315 310 309 296 287 275 264 262 261 256
280 298 308 307 308 313 316 318 319 321 328 328 322 320 321 325 325 322 317 319 320 324 326 321 320 321 320 320 319 318 317 315 313 313 309 311 308 298 290 282 261 261 256
290 293 293 298 306 309 309 311 315 318 321 325 323 319 316 317 317 319 316 316 314 317 319 318 317 315 314 314 314 314 313 313 313 312 311 310 309 306 300 288 280 264 257
290 288 292 295 299 304 304 306 309 309 312 318 318 316 315 313 311 312 314 315 313 315 316 317 315 314 314 312 311 311 310 310 310 309 309 309 309 308 304 298 285 268 260
292 295 291 291 292 295 303 306 305 306 308 306 309 313 312 311 311 309 309 308 310 307 310 312 312 312 312 312 309 309 309 309 308 308 307 308 307 306 304 300 292 279 262
291 292 292 295 298 300 305 303 305 307 309 308 307 309 308 309 305 302 304 305 304 308 309 309 311 309 310 310 309 311 310 309 308 308 307 307 305 305 303 298 290 281 262
293 297 295 300 303 302 302 304 303 302 300 301 303 303 303 304 304 305 304 301 304 304 307 308 309 309 309 309 310 311 310 309 308 306 306 305 304 301 300 296 290 280 262
291 292 294 292 297 297 299 299 299 298 300 300 300 300 300 302 302 302 302 302 302 302 306 307 307 307 308 309 310 309 310 311 310 309 306 305 303 301 298 295 288 277 260
287 287 287 285 286 291 294 297 298 299 299 300 301 301 300 299 300 301 299 301 302 304 307 307 307 307 309 310 309 309 308 309 311 310 307 303 302 299 296 293 284 273 258
285 285 285 287 290 292 294 297 299 299 299 299 297 296 298 299 300 300 300 301 303 303 304 306 305 306 307 308 308 308 308 310 309 309 307 303 301 298 294 288 278 269 254